Weather Roundup
Issued by NWS Springfield, MO

Home | Current Version | Previous Version | Text Only | Print | Product List | Glossary On
Versions: 1 2 3 4 5 6 7 8 9 10 11 12 13 14 15 16 17 18 19 20 21 22 23 24 25 26 27 28 29 30 31 32 33 34 35 36 37 38 39 40 41 42 43 44 45 46 47 48 49 50
254
NZUS99 KSGF 231357
HRRSGF

HOURLY WEATHER
NATIONAL WEATHER SERVICE SPRINGFIELD MO
900 AM CDT WED MAY 23 2018

......SGF CWA......

CITY           SKY/WX    TMP DP  RH WIND       PRES   REMARKS
SPRINGFIELD    SUNNY     76  67  73 SE6       30.13R
JOPLIN         SUNNY     76  70  82 S6        30.12R
WEST PLAINS    CLOUDY    76  70  82 SE3       30.17R
ROLLA          SUNNY     73  63  70 E12       30.16R
BRANSON        PTSUNNY   72  72 100 CALM      30.15R

......SURROUNDING SGF CWA......

CITY           SKY/WX    TMP DP  RH WIND       PRES   REMARKS
CHANUTE        SUNNY     75  71  87 S7        30.11R
PARSONS        SUNNY     75  71  87 S5        30.11R
COFFEYVILLE    SUNNY     75  70  84 S8        30.10R
EMPORIA        SUNNY     74  69  85 S10       30.09R
HARRISON AR    MOSUNNY   69  68  96 SE5       30.15R

......KANSAS AND MISSOURI......

CITY           SKY/WX    TMP DP  RH WIND       PRES   REMARKS
KANSAS CTY INT MOSUNNY   75  67  76 S7        30.11R
SEDALIA        SUNNY     76  69  79 S3        30.13R
ST JOSEPH      SUNNY     76  67  73 SE6       30.10R
ST LOUIS       MOSUNNY   74  62  66 SE9       30.17R
WICHITA        MOSUNNY   75  69  81 S12       30.08R
TOPEKA         SUNNY     76  71  85 SE3       30.08S
OLATHE         SUNNY     74  68  81 SE6       30.11R

......TENNESSEE......

CITY           SKY/WX    TMP DP  RH WIND       PRES   REMARKS
MEMPHIS        NOT AVBL
NASHVILLE      FAIR      77  69  76 CALM      30.12R

......ARKANSAS.......

CITY           SKY/WX    TMP DP  RH WIND       PRES   REMARKS
FAYETTEVILLE   CLOUDY    71  67  87 CALM      30.13R
FT SMITH       CLOUDY    73  70  90 E6        30.10R
LITTLE ROCK    CLOUDY    77  72  84 CALM      30.10R

......OKLAHOMA.......

CITY           SKY/WX    TMP DP  RH WIND       PRES   REMARKS
TULSA          MOSUNNY   76  67  73 S9        30.08R
PONCA CITY     MOSUNNY   76  68  76 S6        30.08R
MCALESTER      MOSUNNY   75  69  81 SE3       30.10R
OKLAHOMA CITY  PTSUNNY   74  68  81 S10       30.08R

......IOWA............

CITY           SKY/WX    TMP DP  RH WIND       PRES   REMARKS
DES MOINES     NOT AVBL
QUAD CITIES    FAIR      70  62  76 SE6       30.18R

......ILLINOIS........

CITY           SKY/WX    TMP DP  RH WIND       PRES   REMARKS
QUINCY         NOT AVBL
CHICAGO        FAIR      65  57  75 CALM      30.20R HAZE





USA.gov is the U.S. government's official web portal to all federal, state and local government web resources and services.